This is the latest recevied weather packets stored in our database for station/object OE6PWE-13. If no packets are shown the sender has not sent any weather packets the latest 10 day(s).
| Time | Temp. | Humidity | Pressure | Rain* | Wind** | Luminosity | Snow |
|---|---|---|---|---|---|---|---|
| 1787982312 | 18.89° C | 77% | 1015 hPa | 0 mm | - | - | - |
| 1787981412 | 18.33° C | 77% | 1015 hPa | 0 mm | - | - | - |
| 1787980512 | 18.33° C | 79% | 1015 hPa | 0 mm | - | - | - |
| 1787979612 | 18.89° C | 77% | 1015 hPa | 0 mm | - | - | - |
| 1787978712 | 18.33° C | 75% | 1015 hPa | 0 mm | - | - | - |
| 1787977812 | 18.89° C | 75% | 1015 hPa | 0 mm | - | - | - |
| 1787976912 | 20.56° C | 69% | 1015 hPa | 0 mm | - | - | - |
| 1787976012 | 20° C | 60% | 1015 hPa | 0 mm | - | - | - |
| 1787975111 | 20° C | 70% | 1015 hPa | 0 mm | - | - | - |
| 1787974211 | 20.56° C | 66% | 1014 hPa | 0 mm | - | - | - |
| 1787973312 | 21.67° C | 63% | 1014 hPa | 0 mm | - | - | - |
| 1787972412 | 22.22° C | 58% | 1014 hPa | 0 mm | - | - | - |
| 1787971512 | 22.78° C | 59% | 1013 hPa | 0 mm | - | - | - |
| 1787970612 | 23.89° C | 59% | 1013 hPa | 0 mm | - | - | - |
| 1787969712 | 23.89° C | 66% | 1012 hPa | 0 mm | - | - | - |
| 1787968812 | 23.33° C | 75% | 1013 hPa | 0 mm | - | - | - |
| 1787967912 | 22.78° C | 75% | 1012 hPa | 0 mm | - | - | - |
| 1787967012 | 23.33° C | 73% | 1012 hPa | 0 mm | - | - | - |
| 1787966112 | 23.33° C | 72% | 1012 hPa | 0 mm | - | - | - |
| 1787965211 | 23.89° C | 71% | 1012 hPa | 0 mm | - | - | - |
| 1787964312 | 23.89° C | 67% | 1011 hPa | 0 mm | - | - | - |
| 1787963412 | 22.78° C | 77% | 1011 hPa | 0 mm | - | - | - |
| 1787959812 | 23.89° C | 72% | 1010 hPa | 0 mm | - | - | - |
| 1787958912 | 23.33° C | 79% | 1010 hPa | 0 mm | - | - | - |
| 1787957112 | 24.44° C | 81% | 1010 hPa | 0 mm | - | - | - |
* Rain latest hour (hover to see other rain measurements)
** Current wind speed in m/s (hover to see current wind gust speed)